period_start,C,m1,H,J0,J1,J2,J3,J4,J5,JA,JB,JC,JD,JJ,JK,JN,#
2015-11-22 00:01:51,0.21,3.71,0.00,15.59,20.08,24.04,15.07,51.65,1019.88,2063.99,2488.02,2290.36,2533.77,599.65,613.01,23.98,0000 0000 0000 0000 000000
2015-11-22 00:06:53,0.14,3.72,0.00,15.60,20.07,24.03,15.07,51.66,1020.00,2063.98,2486.32,2288.59,2531.75,600.08,613.35,24.03,0000 0000 0000 0000 000000
2015-11-22 00:11:54,0.17,3.73,0.00,15.61,20.05,24.05,15.06,51.29,1020.38,2063.99,2484.49,2286.72,2529.77,599.93,613.51,24.08,0000 0000 0000 0000 000000
2015-11-22 00:16:56,0.11,3.74,0.00,15.60,20.04,24.02,15.13,51.48,1020.52,2063.99,2483.17,2285.22,2528.10,600.01,613.57,24.13,0000 0000 0000 0000 000000
2015-11-22 00:21:57,0.10,3.74,0.00,15.59,20.02,24.02,15.06,51.48,1020.52,2063.99,2482.49,2284.12,2526.85,599.93,613.65,24.18,0000 0000 0000 0000 000000
2015-11-22 00:26:58,0.09,3.75,0.00,15.57,20.02,24.03,15.09,51.47,1020.52,2063.99,2481.38,2283.04,2525.73,600.28,614.01,24.24,0000 0000 0000 0000 000000
2015-11-22 00:31:59,0.08,3.75,0.00,15.54,20.00,24.01,15.15,51.06,1020.54,2063.99,2480.44,2282.24,2524.81,600.13,613.92,24.29,0000 0000 0000 0000 000000
2015-11-22 00:37:01,0.14,3.75,0.00,15.52,19.99,23.97,15.05,51.17,1020.54,2063.99,2479.13,2280.86,2523.38,600.03,613.88,24.34,0000 0000 0000 0000 000000
2015-11-22 00:42:02,0.37,3.77,0.00,15.52,19.98,23.99,15.07,51.20,1020.54,2063.99,2475.89,2276.98,2519.55,600.25,614.04,24.39,0000 0000 0000 0000 000000
2015-11-22 00:47:03,0.26,3.79,0.00,15.52,19.97,23.97,15.13,51.26,1020.53,2064.00,2473.30,2273.82,2516.44,600.13,613.98,24.44,0000 0000 0000 0000 000000
2015-11-22 00:52:04,0.22,3.80,0.00,15.50,19.96,23.99,15.08,50.73,1020.54,2064.00,2471.26,2271.42,2513.93,599.64,613.52,24.49,0000 0000 0000 0000 000000
2015-11-22 00:57:06,0.38,3.82,0.00,15.49,19.94,23.91,15.09,51.60,1020.53,2064.00,2467.11,2267.48,2509.66,600.16,614.03,24.54,0000 0000 0000 0000 000000
2015-11-22 01:02:07,0.36,3.83,0.00,15.48,19.94,23.93,15.11,51.60,1020.55,2064.00,2463.98,2263.68,2505.51,599.72,613.57,24.59,0000 0000 0000 0000 000000
2015-11-22 01:07:08,0.32,3.85,0.00,15.46,19.93,23.95,15.08,50.31,1020.53,2064.01,2460.85,2260.14,2501.88,600.54,614.51,24.64,0000 0000 0000 0000 000000
2015-11-22 01:12:09,0.30,3.86,0.00,15.43,19.92,23.94,15.09,51.54,1020.52,2064.03,2457.71,2257.09,2498.63,599.80,613.78,24.69,0000 0000 0000 0000 000000
2015-11-22 01:17:11,0.27,3.88,0.00,15.42,19.90,23.90,15.07,51.50,1020.55,2064.05,2454.46,2253.91,2495.36,599.84,614.08,24.74,0000 0000 0000 0000 000000
2015-11-22 01:22:12,0.10,3.89,0.00,15.40,19.89,23.91,15.08,51.45,1020.58,2064.05,2453.34,2252.36,2493.77,600.08,614.10,24.79,0000 0000 0000 0000 000000
2015-11-22 01:27:13,0.10,3.89,0.00,15.39,19.87,23.89,15.16,51.62,1020.65,2064.10,2452.46,2251.12,2492.60,599.88,614.08,24.84,0000 0000 0000 0000 000000
2015-11-22 01:32:15,0.18,3.90,0.00,15.37,19.87,23.87,15.12,51.51,1020.74,2064.07,2450.63,2249.50,2490.79,600.18,614.43,24.89,0000 0000 0000 0000 000000
2015-11-22 01:37:16,0.10,3.91,0.00,15.34,19.84,23.85,15.03,51.38,1020.86,2064.12,2449.39,2248.24,2489.30,599.48,613.94,24.94,0000 0000 0000 0000 000000
2015-11-22 01:42:17,0.22,3.91,0.00,15.32,19.83,23.85,15.13,51.30,1020.75,2064.14,2447.45,2246.50,2487.31,600.06,614.45,24.99,0000 0000 0000 0000 000000
2015-11-22 01:47:19,0.14,3.93,0.00,15.32,19.82,23.83,15.03,51.57,1020.57,2064.08,2445.97,2244.27,2484.98,599.77,614.06,25.04,0000 0000 0000 0000 000000
2015-11-22 01:52:20,0.56,3.95,0.00,15.29,19.81,23.84,15.07,51.56,1020.94,2064.10,2441.57,2239.54,2479.82,599.79,614.38,25.09,0000 0000 0000 0000 000000
2015-11-22 01:57:22,0.37,3.97,0.00,15.27,19.79,23.82,15.17,51.52,1021.13,2064.08,2437.57,2234.92,2474.84,600.23,615.05,25.14,0000 0000 0000 0000 000000
2015-11-22 02:02:23,0.43,3.99,0.00,15.25,19.78,23.77,15.12,51.17,1021.38,2064.11,2433.27,2230.18,2470.11,600.14,615.09,25.19,0000 0000 0000 0000 000000
2015-11-22 02:07:24,0.23,4.01,0.00,15.24,19.77,23.76,15.09,51.32,1021.09,2064.15,2431.12,2227.50,2467.32,599.80,614.57,25.24,0000 0000 0000 0000 000000
2015-11-22 02:12:25,0.27,4.02,0.00,15.24,19.75,23.77,15.19,51.40,1020.96,2064.25,2428.68,2224.74,2464.39,600.19,614.83,25.29,0000 0000 0000 0000 000000
2015-11-22 02:17:27,0.33,4.03,0.00,15.22,19.74,23.75,15.14,51.64,1020.57,2064.43,2425.88,2221.77,2461.26,599.92,614.43,25.34,0000 0000 0000 0000 000000
2015-11-22 02:22:28,0.29,4.05,0.00,15.20,19.72,23.76,15.12,51.49,1020.54,2064.51,2422.92,2218.77,2457.92,600.01,614.46,25.39,0000 0000 0000 0000 000000
2015-11-22 02:27:29,0.40,4.07,0.00,15.18,19.71,23.73,15.15,51.24,1020.68,2064.80,2419.16,2215.45,2454.24,600.10,614.75,25.44,0000 0000 0000 0000 000000
2015-11-22 02:32:31,0.24,4.08,0.00,15.17,19.69,23.70,15.11,51.32,1020.81,2064.96,2416.31,2212.66,2451.29,600.00,614.73,25.49,0000 0000 0000 0000 000000
2015-11-22 02:37:32,0.26,4.09,0.00,15.17,19.68,23.68,15.10,51.43,1020.94,2064.99,2413.46,2210.03,2448.70,600.29,615.07,25.54,0000 0000 0000 0000 000000
2015-11-22 02:42:33,0.21,4.11,0.00,15.15,19.66,23.65,15.20,51.46,1021.00,2064.99,2411.23,2207.67,2446.23,600.20,615.11,25.59,0000 0000 0000 0000 000000
2015-11-22 02:47:35,0.20,4.12,0.00,15.14,19.64,23.65,15.02,51.40,1021.04,2064.99,2409.15,2205.44,2444.19,599.78,614.77,25.64,0000 0000 0000 0000 000000
2015-11-22 02:52:36,0.28,4.13,0.00,15.15,19.63,23.60,15.09,51.53,1021.02,2065.00,2406.65,2202.64,2441.52,599.94,614.77,25.69,0000 0000 0000 0000 000000
2015-11-22 02:57:37,0.19,4.14,0.00,15.14,19.62,23.62,15.16,51.63,1021.10,2065.01,2404.56,2200.48,2439.51,600.27,615.13,25.74,0000 0000 0000 0000 000000
2015-11-22 03:02:39,0.12,4.15,0.00,15.13,19.59,23.58,15.10,51.54,1021.19,2065.04,2403.30,2199.19,2437.97,600.07,615.15,25.79,0000 0000 0000 0000 000000
2015-11-22 03:07:40,0.15,4.16,0.00,15.11,19.58,23.63,15.12,51.59,1021.11,2065.07,2401.65,2197.67,2436.35,599.88,614.89,25.84,0000 0000 0000 0000 000000
2015-11-22 03:12:41,0.17,4.17,0.00,15.10,19.57,23.55,15.14,51.75,1021.02,2065.20,2399.84,2196.14,2434.66,599.66,614.69,25.89,0000 0000 0000 0000 000000
2015-11-22 03:17:43,0.27,4.18,0.00,15.10,19.55,23.57,15.18,51.77,1021.01,2065.40,2397.38,2194.01,2432.35,599.89,615.00,25.94,0000 0000 0000 0000 000000
2015-11-22 03:22:44,0.28,4.19,0.00,15.09,19.54,23.52,15.16,51.71,1021.00,2065.88,2394.72,2191.57,2429.81,600.12,615.19,25.99,0000 0000 0000 0000 000000
2015-11-22 03:27:45,0.14,4.20,0.00,15.09,19.52,23.54,15.15,51.48,1021.21,2065.96,2393.20,2189.89,2428.16,600.09,615.33,26.04,0000 0000 0000 0000 000000
2015-11-22 03:32:46,0.09,4.21,0.00,15.09,19.51,23.50,15.06,51.14,1021.47,2065.97,2392.22,2188.86,2426.98,599.49,614.76,26.09,0000 0000 0000 0000 000000
2015-11-22 03:37:47,0.05,4.21,0.00,15.08,19.49,23.50,15.06,51.50,1021.49,2065.97,2391.90,2188.31,2426.28,599.86,615.47,26.14,0000 0000 0000 0000 000000
2015-11-22 03:42:49,0.08,4.21,0.00,15.07,19.49,23.50,15.06,51.73,1021.49,2065.96,2391.04,2187.65,2425.52,599.71,615.08,26.19,0000 0000 0000 0000 000000
2015-11-22 03:47:50,0.14,4.22,0.00,15.05,19.47,23.45,15.18,51.72,1021.51,2065.96,2389.77,2186.27,2423.96,600.38,615.82,26.24,0000 0000 0000 0000 000000
2015-11-22 03:52:52,0.23,4.23,0.00,15.03,19.46,23.47,15.10,51.63,1021.50,2065.94,2387.75,2183.99,2421.66,599.99,615.42,26.29,0000 0000 0000 0000 000000
2015-11-22 03:57:53,0.31,4.25,0.00,15.01,19.44,23.46,15.14,51.60,1021.48,2065.97,2384.56,2180.88,2418.16,600.45,615.95,26.34,0000 0000 0000 0000 000000
2015-11-22 04:02:54,0.23,4.26,0.00,14.99,19.44,23.47,14.96,51.30,1021.52,2065.97,2382.05,2178.22,2415.65,599.99,615.51,26.39,0000 0000 0000 0000 000000
2015-11-22 04:07:55,0.18,4.27,0.00,15.00,19.42,23.49,15.20,51.49,1021.52,2065.98,2380.43,2176.27,2413.67,600.16,615.67,26.44,0000 0000 0000 0000 000000
2015-11-22 04:12:56,0.19,4.28,0.00,15.02,19.42,23.43,15.13,51.60,1021.41,2065.98,2378.31,2174.25,2411.38,600.07,615.52,26.49,0000 0000 0000 0000 000000
2015-11-22 04:17:57,0.36,4.29,0.00,15.02,19.40,23.41,15.15,51.58,1021.28,2065.99,2375.19,2171.30,2408.17,600.14,615.61,26.54,0000 0000 0000 0000 000000
2015-11-22 04:22:58,0.29,4.31,0.00,15.02,19.39,23.39,15.06,51.55,1021.44,2065.99,2372.40,2167.97,2404.93,599.59,615.07,26.59,0000 0000 0000 0000 000000
2015-11-22 04:28:00,0.27,4.32,0.00,15.02,19.38,23.39,15.16,51.39,1021.68,2065.99,2369.81,2165.15,2402.00,600.13,615.73,26.64,0000 0000 0000 0000 000000
2015-11-22 04:33:01,0.25,4.34,0.00,15.02,19.37,23.39,15.12,51.50,1021.71,2065.99,2367.29,2162.60,2398.99,599.98,615.58,26.69,0000 0000 0000 0000 000000
2015-11-22 04:38:03,0.30,4.35,0.00,15.03,19.37,23.37,15.11,51.24,1021.91,2065.99,2364.71,2159.76,2395.18,600.12,615.79,26.74,0000 0000 0000 0000 000000
2015-11-22 04:43:04,0.15,4.36,0.00,15.02,19.35,23.41,15.13,51.53,1021.94,2065.99,2362.58,2158.21,2393.11,600.17,615.89,26.79,0000 0000 0000 0000 000000
2015-11-22 04:48:05,0.21,4.37,0.00,15.02,19.34,23.38,15.16,51.67,1021.92,2065.99,2360.41,2156.49,2391.00,599.78,615.58,26.84,0000 0000 0000 0000 000000
2015-11-22 04:53:07,0.19,4.38,0.00,15.02,19.34,23.37,15.17,51.70,1021.88,2065.99,2358.57,2154.65,2388.89,599.80,615.47,26.89,0000 0000 0000 0000 000000
2015-11-22 04:58:08,0.26,4.39,0.00,15.02,19.33,23.37,15.10,51.60,1021.93,2065.99,2355.95,2152.37,2386.27,599.87,615.72,26.94,0000 0000 0000 0000 000000
2015-11-22 05:03:09,0.13,4.40,0.00,15.02,19.32,23.44,15.14,51.71,1022.03,2065.99,2354.46,2150.50,2384.60,599.96,615.77,26.99,0000 0000 0000 0000 000000
2015-11-22 05:08:10,0.12,4.41,0.00,15.01,19.32,23.36,15.05,51.46,1022.23,2065.99,2353.27,2149.47,2383.36,599.60,615.60,27.04,0000 0000 0000 0000 000000
2015-11-22 05:13:12,0.20,4.42,0.00,14.99,19.32,23.33,15.17,51.63,1022.45,2065.97,2351.30,2147.37,2381.14,600.29,616.47,27.09,0000 0000 0000 0000 000000
2015-11-22 05:18:13,0.18,4.43,0.00,14.98,19.30,23.37,15.11,51.72,1022.54,2065.97,2349.53,2145.61,2379.31,600.00,616.17,27.14,0000 0000 0000 0000 000000
2015-11-22 05:23:15,0.28,4.44,0.00,14.96,19.29,23.37,15.04,51.38,1022.49,2065.95,2347.00,2143.27,2376.78,599.74,615.93,27.19,0000 0000 0000 0000 000000
2015-11-22 05:28:16,0.26,4.45,0.00,14.94,19.29,23.36,15.13,51.34,1022.54,2065.98,2344.49,2140.37,2373.85,600.21,616.59,27.24,0000 0000 0000 0000 000000
2015-11-22 05:33:18,0.28,4.47,0.00,14.94,19.29,23.40,15.12,51.35,1022.69,2065.96,2341.66,2137.42,2370.82,599.86,616.05,27.29,0000 0000 0000 0000 000000
2015-11-22 05:38:19,0.21,4.48,0.00,14.94,19.29,23.36,15.14,51.48,1022.95,2065.99,2339.72,2135.17,2368.55,600.07,616.47,27.34,0000 0000 0000 0000 000000
2015-11-22 05:43:20,0.31,4.49,0.00,14.94,19.27,23.36,15.06,51.51,1022.80,2065.98,2336.92,2132.53,2365.91,599.74,616.18,27.39,0000 0000 0000 0000 000000
2015-11-22 05:48:21,0.39,4.51,0.00,14.95,19.27,23.36,15.06,51.83,1022.53,2065.99,2333.33,2128.51,2362.12,599.80,616.09,27.44,0000 0000 0000 0000 000000
2015-11-22 05:53:23,0.36,4.53,0.00,14.96,19.27,23.32,15.09,51.76,1022.60,2065.99,2329.75,2125.07,2358.49,600.04,616.29,27.49,0000 0000 0000 0000 000000
2015-11-22 05:58:24,0.24,4.55,0.00,14.97,19.27,23.35,15.14,51.80,1022.64,2065.99,2327.03,2122.38,2355.66,599.97,616.22,27.54,0000 0000 0000 0000 000000
2015-11-22 06:03:25,0.22,4.56,0.00,14.97,19.25,23.32,15.12,51.77,1022.66,2065.99,2324.93,2120.09,2353.68,599.69,615.98,27.59,0000 0000 0000 0000 000000
2015-11-22 06:08:27,0.17,4.57,0.00,14.97,19.24,23.32,15.18,51.80,1022.90,2065.99,2323.21,2118.31,2351.79,600.20,616.52,27.64,0000 0000 0000 0000 000000
2015-11-22 06:13:28,0.19,4.58,0.00,14.97,19.24,23.32,15.10,51.66,1023.07,2065.99,2321.33,2116.39,2349.70,599.90,616.47,27.69,0000 0000 0000 0000 000000
2015-11-22 06:18:29,0.28,4.59,0.00,14.97,19.24,23.31,15.24,51.73,1023.23,2065.99,2318.56,2113.98,2347.36,599.91,616.59,27.74,0000 0000 0000 0000 000000
2015-11-22 06:23:30,0.16,4.60,0.00,14.97,19.24,23.31,15.18,51.59,1023.38,2065.99,2316.24,2112.01,2345.08,600.19,616.92,27.79,0000 0000 0000 0000 000000
2015-11-22 06:28:32,0.12,4.61,0.00,14.99,19.24,23.28,15.06,51.67,1023.45,2065.98,2314.93,2111.00,2343.83,599.67,616.42,27.84,0000 0000 0000 0000 000000
2015-11-22 06:33:33,0.14,4.62,0.00,14.99,19.24,23.31,15.18,51.70,1023.71,2065.99,2313.34,2109.98,2342.38,599.83,616.60,27.90,0000 0000 0000 0000 000000
2015-11-22 06:38:34,0.15,4.62,0.00,14.99,19.23,23.31,15.15,51.73,1023.94,2065.99,2311.97,2108.67,2341.02,600.04,617.02,27.95,0000 0000 0000 0000 000000
2015-11-22 06:43:35,0.18,4.63,0.00,14.99,19.23,23.28,15.14,51.66,1023.99,2065.99,2310.12,2106.99,2339.26,599.84,616.87,28.00,0000 0000 0000 0000 000000
2015-11-22 06:48:37,0.16,4.64,0.00,14.99,19.22,23.25,15.33,51.80,1024.00,2065.98,2308.15,2105.62,2337.60,600.75,617.60,28.05,0000 0000 0000 0000 000000
2015-11-22 06:53:38,0.20,4.65,0.00,14.98,19.22,23.24,15.15,51.74,1024.00,2065.99,2306.14,2103.76,2335.62,600.15,617.33,28.10,0000 0000 0000 0000 000000
2015-11-22 06:58:39,0.20,4.66,0.00,14.97,19.22,23.33,15.14,51.70,1024.09,2065.98,2304.14,2101.92,2333.60,599.76,616.91,28.15,0000 0000 0000 0000 000000
2015-11-22 07:03:41,0.19,4.67,0.00,14.97,19.22,23.25,15.20,51.70,1024.09,2065.98,2302.27,2100.04,2331.55,599.98,617.19,28.20,0000 0000 0000 0000 000000
2015-11-22 07:08:42,0.17,4.68,0.00,14.95,19.22,23.26,15.13,51.77,1024.21,2065.98,2300.40,2098.38,2329.90,599.70,616.97,28.25,0000 0000 0000 0000 000000
2015-11-22 07:13:43,0.19,4.69,0.00,14.94,19.22,23.31,15.14,51.56,1024.15,2065.98,2298.31,2096.74,2328.20,599.88,617.12,28.30,0000 0000 0000 0000 000000
2015-11-22 07:18:45,0.13,4.70,0.00,14.94,19.22,23.30,15.16,51.84,1024.30,2065.98,2296.73,2095.58,2326.70,600.11,617.45,28.35,0000 0000 0000 0000 000000
2015-11-22 07:23:46,0.11,4.70,0.00,14.94,19.21,23.26,15.19,51.68,1024.42,2065.98,2295.31,2094.57,2325.71,600.25,617.66,28.40,0000 0000 0000 0000 000000
2015-11-22 07:28:47,0.18,4.71,0.00,14.94,19.20,23.25,15.13,51.80,1024.37,2065.98,2293.45,2093.14,2324.31,599.69,617.10,28.45,0000 0000 0000 0000 000000
2015-11-22 07:33:49,0.18,4.72,0.00,14.94,19.20,23.27,15.13,51.73,1024.21,2065.99,2291.51,2091.36,2322.42,599.77,617.01,28.50,0000 0000 0000 0000 000000
2015-11-22 07:38:50,0.24,4.73,0.00,14.94,19.19,23.24,15.20,51.78,1024.41,2065.98,2289.66,2089.35,2320.35,600.18,617.59,28.55,0000 0000 0000 0000 000000
2015-11-22 07:43:52,0.48,4.75,0.00,14.94,19.19,23.25,15.16,51.71,1024.43,2065.97,2285.52,2085.26,2316.20,599.89,617.34,28.60,0000 0000 0000 0000 000000
2015-11-22 07:48:53,0.30,4.77,0.00,14.93,19.19,23.30,15.19,51.71,1024.53,2065.94,2282.06,2081.92,2312.64,599.77,617.31,28.65,0000 0000 0000 0000 000000
2015-11-22 07:53:55,0.17,4.78,0.00,14.92,19.19,23.24,15.25,51.82,1024.75,2065.96,2280.01,2080.11,2310.62,600.57,618.25,28.70,0000 0000 0000 0000 000000
2015-11-22 07:58:56,0.15,4.79,0.00,14.92,19.19,23.25,15.24,51.74,1024.90,2065.86,2278.31,2078.51,2308.87,600.34,618.12,28.75,0000 0000 0000 0000 000000
2015-11-22 08:03:57,0.28,4.80,0.00,14.91,19.19,23.24,15.27,51.81,1024.92,2065.79,2275.89,2076.46,2306.57,600.11,617.86,28.80,0000 0000 0000 0000 000000
2015-11-22 08:08:59,0.35,4.82,0.00,14.92,19.19,23.23,15.24,51.88,1024.85,2065.85,2272.37,2073.36,2303.31,599.89,617.67,28.85,0000 0000 0000 0000 000000
2015-11-22 08:14:00,0.28,4.83,0.00,14.92,19.19,23.30,15.15,51.83,1024.91,2065.82,2269.36,2070.49,2300.32,599.92,617.58,28.90,0000 0000 0000 0000 000000
2015-11-22 08:19:02,0.27,4.85,0.00,14.92,19.19,23.23,15.22,51.82,1024.92,2065.86,2266.85,2068.03,2297.94,599.94,617.65,28.95,0000 0000 0000 0000 000000
2015-11-22 08:24:03,0.26,4.86,0.00,14.94,19.19,23.25,15.24,51.83,1024.87,2065.85,2264.19,2065.67,2295.29,600.15,617.89,29.00,0000 0000 0000 0000 000000
2015-11-22 08:29:04,0.24,4.87,0.00,14.94,19.19,23.26,15.22,51.84,1024.91,2065.87,2261.73,2063.59,2293.05,600.19,617.88,29.05,0000 0000 0000 0000 000000
2015-11-22 08:34:05,0.24,4.88,0.00,14.94,19.19,23.24,15.20,51.77,1024.91,2065.87,2259.14,2061.89,2290.78,599.94,617.64,29.10,0000 0000 0000 0000 000000
2015-11-22 08:39:06,0.18,4.90,0.00,14.94,19.19,23.19,15.23,51.89,1025.20,2065.81,2257.06,2059.55,2288.44,600.13,617.98,29.15,0000 0000 0000 0000 000000
2015-11-22 08:44:08,0.10,4.90,0.00,14.94,19.19,23.23,15.23,51.92,1025.37,2065.70,2255.85,2058.67,2287.56,600.15,618.21,29.20,0000 0000 0000 0000 000000
2015-11-22 08:49:09,0.12,4.91,0.00,14.94,19.19,23.19,15.20,51.82,1025.40,2065.67,2254.38,2057.56,2286.28,599.91,617.78,29.25,0000 0000 0000 0000 000000
2015-11-22 08:54:10,0.20,4.92,0.00,14.92,19.19,23.24,15.16,51.95,1025.28,2065.67,2252.10,2056.22,2284.49,599.88,617.83,29.30,0000 0000 0000 0000 000000
2015-11-22 08:59:12,0.33,4.93,0.00,14.93,19.19,23.23,15.21,51.89,1025.07,2065.74,2248.60,2053.61,2281.46,600.14,617.98,29.35,0000 0000 0000 0000 000000
2015-11-22 09:04:13,0.25,4.95,0.00,14.94,19.19,23.24,15.17,51.89,1025.26,2065.64,2245.91,2051.35,2279.10,600.19,618.11,29.40,0000 0000 0000 0000 000000
2015-11-22 09:09:15,0.20,4.96,0.00,14.94,19.19,23.20,15.13,51.79,1025.38,2065.58,2243.83,2049.39,2277.06,599.72,617.70,29.45,0000 0000 0000 0000 000000
2015-11-22 09:14:16,0.19,4.97,0.00,14.94,19.19,23.24,15.26,51.90,1025.43,2065.66,2241.88,2047.71,2275.33,600.03,618.05,29.50,0000 0000 0000 0000 000000
2015-11-22 09:19:17,0.09,4.98,0.00,14.94,19.19,23.20,15.15,51.91,1025.42,2065.66,2240.31,2046.96,2274.01,600.14,618.05,29.55,0000 0000 0000 0000 000000
2015-11-22 09:24:18,0.14,4.98,0.00,14.96,19.19,23.26,15.18,52.08,1025.40,2065.48,2238.87,2045.87,2272.52,600.14,618.09,29.60,0000 0000 0000 0000 000000
2015-11-22 09:29:20,0.18,4.99,0.00,14.97,19.19,23.22,15.24,52.02,1025.40,2065.34,2236.91,2044.31,2270.63,600.17,618.17,29.65,0000 0000 0000 0000 000000
2015-11-22 09:34:21,0.23,5.00,0.00,14.97,19.19,23.23,15.12,51.96,1025.41,2065.41,2235.14,2042.08,2268.74,599.72,617.67,29.70,0000 0000 0000 0000 000000
2015-11-22 09:39:22,0.31,5.01,0.00,14.97,19.19,23.19,15.26,52.12,1025.42,2065.38,2232.38,2039.47,2266.20,600.20,618.21,29.75,0000 0000 0000 0000 000000
2015-11-22 09:44:24,0.17,5.02,0.00,14.97,19.19,23.22,15.11,52.05,1025.44,2065.23,2230.24,2037.54,2264.12,599.78,617.73,29.80,0000 0000 0000 0000 000000
2015-11-22 09:49:25,0.21,5.04,0.00,14.99,19.19,23.23,15.14,52.04,1025.43,2065.19,2227.97,2035.67,2262.16,599.94,617.90,29.85,0000 0000 0000 0000 000000
2015-11-22 09:54:26,0.21,5.05,0.00,14.99,19.19,23.19,15.19,51.99,1025.44,2065.13,2225.79,2033.93,2260.24,600.19,618.07,29.90,0000 0000 0000 0000 000000
2015-11-22 09:59:27,0.23,5.06,0.00,14.99,19.19,23.23,15.20,51.96,1025.50,2065.12,2223.83,2031.90,2258.20,600.19,617.96,29.95,0000 0000 0000 0000 000000
2015-11-22 10:04:29,0.23,5.07,0.00,15.00,19.19,23.23,15.18,52.03,1025.56,2065.25,2221.73,2030.16,2256.17,600.15,618.11,30.00,0000 0000 0000 0000 000000
2015-11-22 10:09:30,0.20,5.08,0.00,15.02,19.20,23.21,15.18,52.04,1025.64,2065.12,2219.40,2028.19,2254.03,600.06,618.02,30.05,0000 0000 0000 0000 000000
2015-11-22 10:14:31,0.21,5.09,0.00,15.03,19.21,23.23,15.18,52.02,1025.87,2065.11,2217.24,2026.39,2252.02,599.79,617.78,30.10,0000 0000 0000 0000 000000
2015-11-22 10:19:32,0.23,5.10,0.00,15.04,19.22,23.26,15.15,51.95,1025.84,2065.13,2215.08,2024.27,2250.05,600.06,618.12,30.15,0000 0000 0000 0000 000000
2015-11-22 10:24:34,0.21,5.11,0.00,15.06,19.22,23.23,15.08,52.11,1025.88,2065.09,2212.84,2022.28,2247.92,599.64,617.68,30.20,0000 0000 0000 0000 000000
2015-11-22 10:29:35,0.21,5.12,0.00,15.07,19.22,23.22,15.13,51.88,1025.93,2065.04,2210.57,2020.50,2245.88,599.63,617.67,30.25,0000 0000 0000 0000 000000
2015-11-22 10:34:36,0.18,5.14,0.00,15.07,19.22,23.30,15.14,51.98,1026.03,2065.02,2208.50,2018.94,2244.20,599.87,617.91,30.30,0000 0000 0000 0000 000000
2015-11-22 10:39:38,0.26,5.15,0.00,15.07,19.24,23.21,15.17,52.03,1026.17,2065.07,2206.12,2016.85,2242.09,599.83,618.02,30.35,0000 0000 0000 0000 000000
2015-11-22 10:44:39,0.18,5.16,0.00,15.07,19.24,23.22,15.21,52.13,1026.27,2065.05,2204.20,2015.12,2240.44,599.98,618.33,30.40,0000 0000 0000 0000 000000
2015-11-22 10:49:40,0.18,5.17,0.00,15.09,19.24,23.25,15.11,52.07,1026.01,2065.02,2202.14,2013.58,2239.00,599.92,617.97,30.45,0000 0000 0000 0000 000000
2015-11-22 10:54:42,0.17,5.18,0.00,15.09,19.24,23.27,15.21,52.17,1025.94,2065.02,2200.04,2012.45,2237.50,600.15,618.10,30.50,0000 0000 0000 0000 000000
2015-11-22 10:59:43,0.23,5.19,0.00,15.11,19.25,23.21,15.14,52.30,1025.93,2065.04,2197.55,2010.87,2235.62,600.04,617.87,30.55,0000 0000 0000 0000 000000
2015-11-22 11:04:44,0.20,5.20,0.00,15.12,19.27,23.25,15.12,52.38,1025.90,2065.02,2195.61,2008.99,2233.82,599.97,617.88,30.60,0000 0000 0000 0000 000000
2015-11-22 11:09:46,0.21,5.21,0.00,15.12,19.27,23.20,15.22,52.23,1025.93,2065.01,2193.40,2007.26,2231.94,599.94,617.87,30.65,0000 0000 0000 0000 000000
2015-11-22 11:14:47,0.20,5.22,0.00,15.13,19.27,23.25,15.16,52.24,1025.93,2065.01,2191.12,2005.37,2229.98,599.70,617.69,30.70,0000 0000 0000 0000 000000
2015-11-22 11:19:48,0.23,5.23,0.00,15.14,19.28,23.23,15.15,52.38,1026.05,2065.01,2189.18,2003.78,2228.03,599.59,617.49,30.75,0000 0000 0000 0000 000000
2015-11-22 11:24:50,0.26,5.24,0.00,15.14,19.29,23.24,15.19,52.42,1026.14,2065.00,2186.55,2001.71,2225.67,599.94,618.02,30.80,0000 0000 0000 0000 000000
2015-11-22 11:29:51,0.22,5.25,0.00,15.14,19.29,23.30,15.14,52.20,1026.29,2065.00,2184.20,1999.83,2223.69,599.64,617.73,30.85,0000 0000 0000 0000 000000
2015-11-22 11:34:52,0.21,5.26,0.00,15.14,19.29,23.31,15.16,52.33,1026.22,2065.00,2182.02,1998.09,2221.79,600.07,617.99,30.90,0000 0000 0000 0000 000000
2015-11-22 11:39:54,0.27,5.28,0.00,15.15,19.30,23.34,15.14,52.21,1026.22,2065.00,2179.21,1996.06,2219.59,599.66,617.79,30.95,0000 0000 0000 0000 000000
2015-11-22 11:44:55,0.29,5.29,0.00,15.17,19.31,23.37,15.17,52.52,1026.08,2065.00,2176.54,1993.64,2217.11,600.00,617.93,31.00,0000 0000 0000 0000 000000
2015-11-22 11:49:56,0.18,5.30,0.00,15.17,19.32,23.35,15.18,52.54,1026.05,2065.00,2174.57,1991.87,2215.37,599.83,617.75,31.05,0000 0000 0000 0000 000000
2015-11-22 11:54:57,0.21,5.31,0.00,15.17,19.32,23.29,15.18,52.40,1026.28,2064.99,2172.66,1990.23,2213.57,599.86,617.95,31.10,0000 0000 0000 0000 000000
2015-11-22 11:59:58,0.24,5.32,0.00,15.17,19.32,23.33,15.26,52.42,1026.43,2064.98,2170.35,1988.17,2211.39,600.44,618.55,31.15,0000 0000 0000 0000 000000
2015-11-22 12:05:00,0.19,5.33,0.00,15.18,19.32,23.34,15.15,52.39,1026.56,2064.98,2168.53,1986.31,2209.56,599.69,617.87,31.20,0000 0000 0000 0000 000000
2015-11-22 12:10:01,0.23,5.35,0.00,15.19,19.32,23.30,15.24,52.41,1026.47,2064.97,2166.36,1984.57,2207.57,600.13,618.24,31.25,0000 0000 0000 0000 000000
2015-11-22 12:15:02,0.24,5.36,0.00,15.19,19.34,23.34,15.21,52.22,1026.50,2064.98,2164.14,1982.74,2205.42,600.13,618.24,31.30,0000 0000 0000 0000 000000
2015-11-22 12:20:03,0.16,5.37,0.00,15.19,19.34,23.35,15.19,52.38,1026.38,2064.97,2162.21,1981.54,2203.61,600.24,618.32,31.35,0000 0000 0000 0000 000000
2015-11-22 12:25:05,0.25,5.38,0.00,15.21,19.34,23.32,15.14,52.40,1026.38,2064.96,2159.93,1979.65,2201.40,599.88,617.90,31.40,0000 0000 0000 0000 000000
2015-11-22 12:30:07,0.18,5.39,0.00,15.22,19.34,23.37,15.28,52.52,1026.38,2064.96,2157.95,1977.95,2199.62,600.06,618.01,31.45,0000 0000 0000 0000 000000
2015-11-22 12:35:08,0.47,5.41,0.00,15.22,19.35,23.32,15.18,52.49,1026.38,2064.96,2154.19,1974.41,2196.11,599.90,617.99,31.50,0000 0000 0000 0000 000000
2015-11-22 12:40:09,0.21,5.42,0.00,15.22,19.36,23.36,15.19,52.41,1026.44,2064.94,2151.83,1972.44,2193.85,599.91,617.84,31.55,0000 0000 0000 0000 000000
2015-11-22 12:45:10,0.16,5.43,0.00,15.22,19.37,23.35,15.22,52.27,1026.80,2064.81,2150.11,1970.82,2192.07,600.12,618.42,31.60,0000 0000 0000 0000 000000
2015-11-22 12:50:12,0.20,5.44,0.00,15.22,19.37,23.38,15.20,52.37,1026.88,2064.84,2148.19,1969.39,2190.60,600.25,618.47,31.65,0000 0000 0000 0000 000000
2015-11-22 12:55:13,0.23,5.45,0.00,15.24,19.37,23.36,15.16,52.32,1026.90,2064.88,2146.11,1967.60,2188.91,599.88,618.11,31.70,0000 0000 0000 0000 000000